Tracking 29892 objects as of 21-Nov-2024
HD Live streaming from Space Station
objects crossing your sky now

CZ-6A DEB

Track CZ-6A DEB now!
10-day predictions


NORAD ID: 55207
Int'l Code: 2022-151VY
Perigee: 641.3 km
Apogee: 776.2 km
Inclination: 98.7 °
Period: 98.8 minutes
Semi major axis: 7079 km
RCS: Unknown
Launch date: November 11, 2022
Source: People's Republic of China (PRC)
Launch site: Taiyaun Space Center, China (TSC)

Note: This is SATELLITE DEBRIS
Your satellite tracking list
Your tracking list is empty




NASA's NSSDC Master Catalog

Two Line Element Set (TLE):
1 55207U 22151VY  24325.77736912  .00021940  00000-0  45447-2 0  9990
2 55207  98.6720 356.8404 0095314 248.4509 110.6509 14.57394971101472
Source of the keplerian elements: AFSPC